Weather reports worldwide

Advertisment
Dalwhinnie, United Kingdom (99005): temperature & dewpoint: 23.09.2020 02:00:00 - 29.09.2020 02:00:00 (BST)Dalwhinnie, United Kingdom (99005): precipitation: 23.09.2020 02:00:00 - 29.09.2020 02:00:00 (BST)
Date & Time tt [°C] td [°C] rr [mm]
29.09.2020 02:00:00 - - -
29.09.2020 01:00:00 7,5 4,9 0,0
29.09.2020 00:00:00 7,9 5,5 -
28.09.2020 23:00:00 6,5 4,5 0,0
28.09.2020 22:00:00 8,4 5,8 0,0
28.09.2020 21:00:00 7,1 5,1 0,2
28.09.2020 20:00:00 9,5 5,8 0,0
28.09.2020 19:00:00 10,1 5,1 0,0
28.09.2020 18:00:00 10,8 5,7 -
28.09.2020 17:00:00 12,5 6,8 -
28.09.2020 16:00:00 13,7 7,1 0,0
28.09.2020 15:00:00 13,0 7,9 0,0
28.09.2020 14:00:00 11,5 9,8 0,0
28.09.2020 13:00:00 9,9 9,0 0,0
28.09.2020 12:00:00 9,5 7,9 -
28.09.2020 11:00:00 9,0 7,3 0,2
28.09.2020 10:00:00 9,4 6,1 0,0
28.09.2020 09:00:00 8,7 5,2 0,0
28.09.2020 08:00:00 8,9 4,3 0,0
28.09.2020 07:00:00 9,1 2,8 0,0
28.09.2020 06:00:00 8,6 1,2 -
28.09.2020 05:00:00 7,9 1,8 0,0
28.09.2020 04:00:00 7,6 2,0 0,0
28.09.2020 03:00:00 4,7 2,7 0,0
28.09.2020 02:00:00 4,9 1,7 0,0
28.09.2020 01:00:00 4,1 1,7 0,0
28.09.2020 00:00:00 4,0 1,2 0,0
27.09.2020 23:00:00 3,6 1,6 0,0
27.09.2020 22:00:00 2,4 0,6 0,0
27.09.2020 21:00:00 2,9 0,4 -
27.09.2020 20:00:00 4,7 0,8 0,0
27.09.2020 19:00:00 6,4 1,5 0,0
27.09.2020 18:00:00 9,3 2,1 0,0
27.09.2020 17:00:00 10,1 1,0 -
27.09.2020 16:00:00 11,2 0,8 0,0
27.09.2020 15:00:00 10,9 0,2 0,0
27.09.2020 14:00:00 10,1 0,4 0,0
27.09.2020 13:00:00 9,4 1,4 0,0
27.09.2020 12:00:00 7,5 1,6 0,0
27.09.2020 11:00:00 6,0 2,1 0,0
27.09.2020 10:00:00 4,0 3,0 0,2
27.09.2020 09:00:00 -0,2 -0,4 -
27.09.2020 08:00:00 -3,0 -3,5 0,0
27.09.2020 07:00:00 -2,6 -3,1 0,0
27.09.2020 06:00:00 -2,3 -2,8 -
27.09.2020 05:00:00 -1,0 -1,5 0,0
27.09.2020 04:00:00 -0,6 -1,2 0,0
27.09.2020 03:00:00 0,2 -0,2 0,0
27.09.2020 02:00:00 -0,3 -0,9 0,0
27.09.2020 01:00:00 0,2 -0,6 0,0
27.09.2020 00:00:00 -0,1 -1,2 0,0
26.09.2020 23:00:00 1,7 0,6 0,0
26.09.2020 22:00:00 3,1 1,1 0,0
26.09.2020 21:00:00 4,6 2,7 0,0
26.09.2020 20:00:00 5,2 2,3 0,0
26.09.2020 19:00:00 7,8 3,1 0,0
26.09.2020 18:00:00 8,6 2,0 0,0
26.09.2020 17:00:00 9,4 1,5 0,0
26.09.2020 16:00:00 9,8 2,0 0,0
26.09.2020 15:00:00 10,0 1,5 0,0
26.09.2020 14:00:00 9,3 2,4 0,0
26.09.2020 13:00:00 9,1 1,6 0,0
26.09.2020 12:00:00 8,5 1,7 0,0
26.09.2020 11:00:00 6,8 2,0 0,0
26.09.2020 10:00:00 7,5 2,8 0,0
26.09.2020 09:00:00 5,6 2,6 0,0
26.09.2020 08:00:00 4,6 1,9 0,0
26.09.2020 07:00:00 4,8 2,1 0,0
26.09.2020 06:00:00 4,8 1,8 0,0
26.09.2020 05:00:00 4,7 1,6 0,0
26.09.2020 04:00:00 4,8 1,6 0,0
26.09.2020 03:00:00 4,2 1,4 0,0
26.09.2020 02:00:00 4,3 1,6 0,0
26.09.2020 01:00:00 4,4 1,4 0,0
26.09.2020 00:00:00 3,1 0,7 0,0
25.09.2020 23:00:00 3,8 0,5 0,0
25.09.2020 22:00:00 3,2 -0,4 0,0
25.09.2020 21:00:00 4,6 0,3 -
25.09.2020 20:00:00 5,0 0,0 0,0
25.09.2020 19:00:00 4,9 0,2 0,0
25.09.2020 18:00:00 6,9 2,6 0,0
25.09.2020 17:00:00 7,4 1,1 0,0
25.09.2020 16:00:00 7,2 2,1 0,0
25.09.2020 15:00:00 7,3 2,7 0,0
25.09.2020 14:00:00 7,0 2,9 0,0
25.09.2020 13:00:00 8,1 0,4 0,0
25.09.2020 12:00:00 7,4 1,7 0,0
25.09.2020 11:00:00 7,0 2,7 0,0
25.09.2020 10:00:00 6,7 3,4 0,0
25.09.2020 09:00:00 6,4 4,3 0,0
25.09.2020 08:00:00 5,9 3,4 -
25.09.2020 07:00:00 5,9 3,2 0,0
25.09.2020 06:00:00 5,9 2,8 0,0
25.09.2020 05:00:00 5,4 2,7 0,0
25.09.2020 04:00:00 5,1 2,7 0,0
25.09.2020 03:00:00 4,0 2,7 0,0
25.09.2020 02:00:00 0,8 0,2 0,0
25.09.2020 01:00:00 1,0 0,1 0,0
25.09.2020 00:00:00 1,6 0,3 0,0
24.09.2020 23:00:00 1,1 0,0 0,0
24.09.2020 22:00:00 0,9 -0,2 0,0
24.09.2020 21:00:00 2,4 1,1 0,0
24.09.2020 20:00:00 3,4 1,1 -
24.09.2020 19:00:00 5,3 1,6 0,0
24.09.2020 18:00:00 7,1 1,8 0,0
24.09.2020 17:00:00 7,9 1,9 0,0
24.09.2020 16:00:00 8,4 1,8 0,0
24.09.2020 15:00:00 8,0 1,6 0,0
24.09.2020 14:00:00 7,8 3,1 0,0
24.09.2020 13:00:00 6,5 3,9 0,0
24.09.2020 12:00:00 5,8 4,2 0,0
24.09.2020 11:00:00 5,1 4,6 0,0
24.09.2020 10:00:00 2,8 2,6 0,2
24.09.2020 09:00:00 0,4 0,2 0,0
24.09.2020 08:00:00 -1,3 -1,6 0,0
24.09.2020 07:00:00 -2,2 -2,5 0,0
24.09.2020 06:00:00 -2,5 -2,9 0,0
24.09.2020 05:00:00 -2,6 -3,1 -
24.09.2020 04:00:00 -2,8 -3,3 0,0
24.09.2020 03:00:00 -2,0 -2,5 0,0
24.09.2020 02:00:00 -1,6 -2,2 0,0
24.09.2020 01:00:00 0,1 -0,3 0,0
24.09.2020 00:00:00 -1,0 -1,7 0,0
23.09.2020 23:00:00 0,1 -0,6 0,0
23.09.2020 22:00:00 1,0 0,0 0,0
23.09.2020 21:00:00 2,6 1,2 0,0
23.09.2020 20:00:00 5,0 2,6 0,0
23.09.2020 19:00:00 7,1 3,0 0,0
23.09.2020 18:00:00 9,7 2,2 0,0
23.09.2020 17:00:00 10,3 0,2 0,0
23.09.2020 16:00:00 10,8 1,7 0,0
23.09.2020 15:00:00 10,0 0,6 0,0
23.09.2020 14:00:00 9,5 1,3 0,0
23.09.2020 13:00:00 9,3 2,0 0,0
23.09.2020 12:00:00 8,4 2,4 0,0
23.09.2020 11:00:00 7,6 1,5 0,0
23.09.2020 10:00:00 6,6 2,9 0,0
23.09.2020 09:00:00 4,9 3,9 0,0
23.09.2020 08:00:00 2,6 2,0 0,0
23.09.2020 07:00:00 2,6 1,8 0,0
23.09.2020 06:00:00 3,8 2,9 0,0
23.09.2020 05:00:00 3,5 2,6 0,0
23.09.2020 04:00:00 4,2 3,1 -
23.09.2020 03:00:00 4,6 3,3 0,0
23.09.2020 02:00:00 4,7 2,8 0,0

tt = temperature
td = dewpoint
rr = precipitation

Next stations